Location: G?julap?du
(16.5372°N, 81.0979°E)
Time: 14:29:31
(UTC+00:00)

ARIANE 5 R/B - Pass Details

Date: 14 April 2026
Orbit: 246 x 30894 km, 5.9° (Epoch: 10 May)

Event Time Altitude Azimuth Distance (km) Brightness Sun altitude
Exits shadow 21:56:12 25° 149° (SSE) 2,037 4.6 -33.9°
Drops below altitude 10° 22:05:29 10° 110° (ESE) 5,933 7.5 -31.9°
Sets 22:19:27 0° 102° (ESE) 11,204 9.3 -28.8°
